Location: Tafessasset
(32.5899°N, 5.4824°W)
Time: 08:39:13
(UTC+00:00)

Cosmos 1140 Rocket - Pass Details

Date: 18 February 2020
Orbit: 745 x 766 km, 74.1° (Epoch: 06 April)

Event Time Altitude Azimuth Distance (km) Brightness Sun altitude
Rises 05:48:15 0° 202° (SSW) 3,210 6.5 -16.3°
Reaches altitude 10° 05:50:38 10° 205° (SSW) 2,290 5.8 -15.8°
Maximum altitude 05:55:48 66° 288° (WNW) 835 3.4 -14.7°
Drops below altitude 10° 06:01:00 10° 10° (N) 2,308 6.0 -13.6°
Sets 06:03:25 0° 14° (NNE) 3,238 6.8 -13.1°
